KINEIS-1B

Satellite information

Favourite Embed

Satellite Type and Status

PAYLOADIN ORBIT

Key statistics

Satellite KINEIS-1B at a glance.

Uptime

383

Days in orbit

Revolutions

≈ 14.8

Per day

Orbit

SSO

Sun Synchronous Orbit

Inclination

98.0

Latest

Satellite identification and parameters

Extended collection of information and parameters for KINEIS-1B.

Object identification

Identified? True

Debris? False

Object name: KINEIS-1B

International designator: 2024-114A

Object number (NORAD): 60079

Object ID (CCSDS): 60079

Country: FRANCE (FR)

Current information (Y/N): Y

RCS size: MEDIUM

Orbital parameters

Period: 97.318 minutes

Inclination: 98.0082 deg

SMA: 7008.454 km

Apoapsis: 633.005 km

Periapsis: 627.633 km

RAAN: 209.4151 deg

Eccentricy: 0.0003832

Argument of periapsis: 117.6341 deg

Mean anomaly: 242.526 deg

Mean motion: 14.7968555 rev/day

Mean motion (dot): 0.00000685 rev/day2

B* drag term: 0.000098271 1/REarth

Two-line elements (TLE)

Creation date: July 8, 2025, 2:27 a.m.

Reference frame: TEME

Reference center: EARTH

Epoch: July 7, 2025, 9:32 p.m. UTC

TLE line 0: 0 KINEIS-1B

TLE line 1: 1 60079U 24114A 25188.89732656 .00000685 00000-0 98271-4 0 9994

TLE line 2: 2 60079 98.0082 209.4151 0003832 117.6341 242.5260 14.79685550 56475

Live tracking on map

Real-time ground track for satellite KINEIS-1B.

In-orbit conjunctions

There are no conjunctions computed for KINEIS-1B, at the moment. Check back to stay up to date, as we update our databases every day.

Go to all conjunctions

Associated space launch

First batch of five satellites for the French Kinéis IoT constellation designed to operate with 25 nanosatellites of 30 kg each.

KINEIS-1B was lifted into orbit during the mission ‘Electron | No Time Toulouse (Kinéis 1-5)’, on board a Electron space rocket.

The launch took place on June 20, 2024, 6:13 p.m. from Rocket Lab Launch Complex 1B.

For more information about the launch, click the button.

Launch to space Electron | No Time Toulouse (Kinéis 1-5)
Electron | No Time Toulouse (Kinéis 1-5)

Agency: Kinéis

Status: Launch Successful

Launch date: June 20, 2024, 6:13 p.m. UTC

Rocket: Electron

Launch pad: Rocket Lab Launch Complex 1B

Location: Rocket Lab Launch Complex 1, Mahia Peninsula, New Zealand

...

Latest news about this satellite

News about space launch
Rocket Report: Electron turns 50, China’s Moon launcher breathes fire

"Most rocket startups are still stuck in the long process of reengineering."

News about space launch
Rocket Lab launches first Kinéis satellites on 50th Electron

Rocket Lab successfully launched the first set of satellites for a French startup June 20 on the 50th flight of its Electron rocket.

News about space launch
Rocket Lab successfully launches its 50th Electron rocket

Rocket Lab's Electron rocket made history by reaching its 50th launch faster than any other commercially developed orbital launch vehicle. Liftoff from New Zealand took place at 6:13 a.m. NZST on Friday, June 21 (2:13 p.m. EDT, 1813 UTC on Thursday, June ...


Newsletter sign-up

Weekly statistics, charts and insights to help you stay on top of the space industry.